Tracking 20228 objects as of 17-Jan-2020
HD Live streaming from Space Station
objects crossing your sky now

FENGYUN 1C DEB

Track FENGYUN 1C DEB now!
10-day predictions


NORAD ID: 31679
Int'l Code: 1999-025CCM
Perigee: 698.1 km
Apogee: 805.6 km
Inclination: 98.9 °
Period: 99.7 minutes
Semi major axis: 7122 km
RCS: 0.0078 m2 (small)
Launch date: May 10, 1999
Source: People's Republic of China (PRC)
Launch site: Taiyaun Space Center, China (TSC)

Note: This is SATELLITE DEBRIS
aabbcc
Your satellite tracking list
Your tracking list is empty




NASA's NSSDC Master Catalog

Two Line Element Set (TLE):
1 31679U 99025CCM 20002.38613433  .00000929  00000-0  27579-3 0  9999
2 31679  98.9465 224.3850 0075483 107.3561 253.5902 14.44192635661157
Source of the keplerian elements: AFSPC